User: anonymous
Location: Unspecified
(0.0000°N, 0.0000°E)
Time: 03:42:05
(UTC+00:00)
Language:

METEOR-M - Orbit

View from above orbital plane
View from above orbital plane
View from above satellite
View from above satellite

Ground track
Ground track

The orbit data is extracted from the following two-line orbital elements,

1 35865U 09049A   14203.76080679 -.00000064  00000-0 -99727-5 0  7373
2 35865 098.5473 250.0917 0002669 013.6929 346.4314 14.21925527251395
Epoch (UTC): 22 July 2014 18:15:33
Eccentricity: 0.0002669
inclination: 98.5473°
perigee height: 817 km
apogee height: 821 km
right ascension of ascending node: 250.0917°
argument of perigee: 13.6929°
revolutions per day: 14.21925527
mean anomaly at epoch: 346.4314°
orbit number at epoch: 25139

The dashed part of the orbit path shows where the satellite is in the earth's shadow,  

DLR